IW8PDD-3 Weather Reports


Display with metric or nautical units.
time (UTC)temp
F
wind
direction
speed
MPH
gust
MPH
rain 1hr
in
rain 24hr
in
rain mn
in
humidity
%
barometer
mb
20260906071139 85 0.0 0.0 0.00 0.00 0.00 62 1019.5
20260906065136 84 0.0 0.0 0.00 0.00 0.00 62 1019.3
20260906063132 84 0.0 0.0 0.00 0.00 0.00 62 1019.2
20260906061129 84 0.0 0.0 0.00 0.00 0.00 62 1019.2
20260906055125 83 0.0 0.0 0.00 0.00 0.00 63 1019.2
20260906053122 83 0.0 0.0 0.00 0.00 0.00 63 1019.0
20260906051119 82 0.0 0.0 0.00 0.00 0.00 63 1018.9
20260906045115 82 0.0 0.0 0.00 0.00 0.00 63 1018.8
20260906043112 82 0.0 0.0 0.00 0.00 0.00 63 1018.7
20260906041108 82 0.0 0.0 0.00 0.00 0.00 63 1018.6
20260906035105 82 0.0 0.0 0.00 0.00 0.00 63 1018.5
20260906033101 82 0.0 0.0 0.00 0.00 0.00 63 1018.3
20260906031058 82 0.0 0.0 0.00 0.00 0.00 63 1018.3
20260906025054 82 0.0 0.0 0.00 0.00 0.00 62 1018.3
20260906023051 83 0.0 0.0 0.00 0.00 0.00 62 1018.4
20260906021047 83 0.0 0.0 0.00 0.00 0.00 62 1018.5
20260906015044 83 0.0 0.0 0.00 0.00 0.00 62 1018.4
20260906013040 83 0.0 0.0 0.00 0.00 0.00 62 1018.4
20260906011036 83 0.0 0.0 0.00 0.00 0.00 61 1018.5
20260906005032 83 0.0 0.0 0.00 0.00 0.00 61 1018.4
20260906003028 83 0.0 0.0 0.00 0.00 0.00 61 1018.4
20260906001024 83 0.0 0.0 0.00 0.00 0.00 60 1018.5
20260905235020 83 0.0 0.0 0.00 0.00 0.00 60 1018.6
20260905214958 84 0.0 0.0 0.00 0.00 0.00 56 1019.0
20260905210951 85 0.0 0.0 0.00 0.00 0.00 55 1019.1
20260905204947 85 0.0 0.0 0.00 0.00 0.00 55 1019.1
20260905202944 85 0.0 0.0 0.00 0.00 0.00 55 1019.2
20260905200941 85 0.0 0.0 0.00 0.00 0.00 55 1019.2
20260905195744 85 0.0 0.0 0.00 0.00 0.00 55 1019.1
20260905193741 85 0.0 0.0 0.00 0.00 0.00 54 1019.1
20260905191738 85 0.0 0.0 0.00 0.00 0.00 53 1019.0
20260905185734 86 0.0 0.0 0.00 0.00 0.00 53 1018.9
20260905183731 86 0.0 0.0 0.00 0.00 0.00 53 1018.7
20260905181727 86 0.0 0.0 0.00 0.00 0.00 54 1018.5
20260905175724 86 0.0 0.0 0.00 0.00 0.00 53 1018.4
20260905174953 86 0.0 0.0 0.00 0.00 0.00 53 1018.3
20260905172949 87 0.0 0.0 0.00 0.00 0.00 52 1018.3
20260905170946 87 0.0 0.0 0.00 0.00 0.00 50 1018.1
20260905164942 88 0.0 0.0 0.00 0.00 0.00 48 1018.0
20260905162939 88 0.0 0.0 0.00 0.00 0.00 45 1018.0
20260905160936 90 0.0 0.0 0.00 0.00 0.00 43 1018.0
20260905154932 93 0.0 0.0 0.00 0.00 0.00 40 1017.9
20260905152928 97 0.0 0.0 0.00 0.00 0.00 38 1018.0
20260905150925 99 0.0 0.0 0.00 0.00 0.00 35 1017.8
20260905144921 106 0.0 0.0 0.00 0.00 0.00 32 1017.8
20260905142919 108 0.0 0.0 0.00 0.00 0.00 32 1017.9
20260905140915 108 0.0 0.0 0.00 0.00 0.00 33 1017.9
20260905134911 107 0.0 0.0 0.00 0.00 0.00 33 1018.0
20260905132908 106 0.0 0.0 0.00 0.00 0.00 34 1018.2
20260905130904 106 0.0 0.0 0.00 0.00 0.00 35 1018.3
20260905124901 104 0.0 0.0 0.00 0.00 0.00 36 1018.5
20260905122857 100 0.0 0.0 0.00 0.00 0.00 38 1018.6
20260905120854 97 0.0 0.0 0.00 0.00 0.00 41 1018.9
20260905114850 93 0.0 0.0 0.00 0.00 0.00 43 1019.0
20260905112847 90 0.0 0.0 0.00 0.00 0.00 44 1019.1
20260905110843 90 0.0 0.0 0.00 0.00 0.00 45 1019.0
20260905104840 90 0.0 0.0 0.00 0.00 0.00 45 1019.1
20260905100833 89 0.0 0.0 0.00 0.00 0.00 46 1019.1
20260905094829 89 0.0 0.0 0.00 0.00 0.00 47 1019.1
20260905092826 89 0.0 0.0 0.00 0.00 0.00 49 1019.1
20260905090823 88 0.0 0.0 0.00 0.00 0.00 51 1019.2
20260905084819 86 0.0 0.0 0.00 0.00 0.00 55 1019.3
20260905082816 85 0.0 0.0 0.00 0.00 0.00 57 1019.2
20260905080812 85 0.0 0.0 0.00 0.00 0.00 57 1019.2
20260905074809 83 0.0 0.0 0.00 0.00 0.00 57 1019.1